^^

..:: Storico WU ::..




Lo storico viene creato da WUnderground con i dati che la stazione Meteomincio invia al loro server. L' aggiornamento viene fatto ogni 5 minuti circa, tuttavia possono esserci intervalli pił ampi a causa di errori, interruzioni di servizio o problemi nell' invio tramite FTP.


Storico stazione MeteoMincio
Giorno Sommario per Febbario 26, 2022 Unità:  Inglese    Metrico   Entrambi
Giorno Settimana Mese Anno
  Max: Min: Media:
Temperatura: 57.2 °F 35.6 °F 45 °F
Dew Point: 41 °F 23 °F 33.4 °F
Umidità: 93% 27% 68%
Velocità vento: 13.7mph 0mph 5.5mph
Raffica: 17.4mph - -
Direzione- - South
Pressione: 30.3 in 30.2 in -
Precipitazioni: 0 in    
 
 
Tabulato Dati per Febbario 26, 2022
Ora Temperatura Dew Point Pressione Direzione Velocità vento Raffica Umidità Intensità pioggia (oraria) Info solare Situazione
00:04 42.8 °F 39.2 °F 30.3 in ESE 10.6 mph 14.9 mph 84% 0 in 0.00 W/m2 unknown
00:09 42.8 °F 37.4 °F 30.3 in ESE 9.9 mph 14.9 mph 84% 0 in 0.00 W/m2 unknown
00:14 42.8 °F 39.2 °F 30.3 in ESE 8.1 mph 13 mph 85% 0 in 0.00 W/m2 unknown
00:19 42.8 °F 39.2 °F 30.3 in ESE 6.8 mph 10.6 mph 85% 0 in 0.00 W/m2 unknown
00:24 42.8 °F 37.4 °F 30.3 in ESE 8.1 mph 11.8 mph 85% 0 in 0.00 W/m2 unknown
00:29 42.8 °F 37.4 °F 30.3 in SE 7.5 mph 11.8 mph 85% 0 in 0.00 W/m2 unknown
00:34 42.8 °F 37.4 °F 30.3 in ESE 6.2 mph 9.9 mph 86% 0 in 0.00 W/m2 unknown
00:39 42.8 °F 37.4 °F 30.3 in SE 5.6 mph 9.3 mph 86% 0 in 0.00 W/m2 unknown
00:44 42.8 °F 39.2 °F 30.3 in SE 6.2 mph 9.3 mph 87% 0 in 0.00 W/m2 unknown
00:49 42.8 °F 37.4 °F 30.3 in SE 6.2 mph 9.3 mph 87% 0 in 0.00 W/m2 unknown
00:54 41 °F 37.4 °F 30.3 in SE 3.7 mph 8.7 mph 87% 0 in 0.00 W/m2 unknown
00:59 41 °F 37.4 °F 30.3 in SE 3.7 mph 6.8 mph 88% 0 in 0.00 W/m2 unknown
01:04 41 °F 37.4 °F 30.3 in SE 3.7 mph 6.8 mph 88% 0 in 0.00 W/m2 unknown
01:09 41 °F 37.4 °F 30.3 in ESE 3.7 mph 6.2 mph 88% 0 in 0.00 W/m2 unknown
01:14 41 °F 37.4 °F 30.3 in ESE 4.3 mph 6.2 mph 88% 0 in 0.00 W/m2 unknown
01:19 41 °F 37.4 °F 30.3 in SE 4.3 mph 6.2 mph 88% 0 in 0.00 W/m2 unknown
01:24 41 °F 37.4 °F 30.3 in SE 3.1 mph 6.2 mph 88% 0 in 0.00 W/m2 unknown
01:29 41 °F 37.4 °F 30.3 in SE 3.1 mph 6.2 mph 88% 0 in 0.00 W/m2 unknown
01:34 41 °F 37.4 °F 30.3 in SE 1.9 mph 3.7 mph 88% 0 in 0.00 W/m2 unknown
01:39 41 °F 37.4 °F 30.3 in SSE 2.5 mph 3.7 mph 88% 0 in 0.00 W/m2 unknown
01:44 41 °F 37.4 °F 30.3 in SSE 1.9 mph 3.7 mph 88% 0 in 0.00 W/m2 unknown
01:49 41 °F 37.4 °F 30.3 in South 2.5 mph 3.7 mph 88% 0 in 0.00 W/m2 unknown
01:54 41 °F 37.4 °F 30.3 in SSE 2.5 mph 3.7 mph 89% 0 in 0.00 W/m2 unknown
01:59 41 °F 37.4 °F 30.3 in SSE 3.1 mph 5 mph 88% 0 in 0.00 W/m2 unknown
02:04 41 °F 37.4 °F 30.3 in SSE 3.7 mph 8.1 mph 88% 0 in 0.00 W/m2 unknown
02:09 41 °F 37.4 °F 30.3 in SSE 3.1 mph 8.1 mph 88% 0 in 0.00 W/m2 unknown
02:14 41 °F 37.4 °F 30.3 in SSE 3.1 mph 4.3 mph 88% 0 in 0.00 W/m2 unknown
02:19 41 °F 37.4 °F 30.3 in SSW 3.7 mph 6.8 mph 89% 0 in 0.00 W/m2 unknown
02:24 41 °F 37.4 °F 30.3 in SSW 5.6 mph 6.8 mph 88% 0 in 0.00 W/m2 unknown
02:29 41 °F 37.4 °F 30.3 in SSW 5.6 mph 8.1 mph 88% 0 in 0.00 W/m2 unknown
02:34 41 °F 37.4 °F 30.3 in SSW 5.6 mph 8.1 mph 89% 0 in 0.00 W/m2 unknown
02:39 41 °F 37.4 °F 30.3 in SSW 5 mph 6.8 mph 89% 0 in 0.00 W/m2 unknown
02:44 39.2 °F 37.4 °F 30.3 in SW 3.7 mph 6.2 mph 89% 0 in 0.00 W/m2 unknown
02:49 39.2 °F 37.4 °F 30.3 in SW 3.1 mph 5 mph 89% 0 in 0.00 W/m2 unknown
02:54 39.2 °F 37.4 °F 30.3 in SW 2.5 mph 5 mph 89% 0 in 0.00 W/m2 unknown
02:59 39.2 °F 35.6 °F 30.3 in SW 2.5 mph 3.7 mph 90% 0 in 0.00 W/m2 unknown
03:04 39.2 °F 35.6 °F 30.3 in WSW 2.5 mph 3.7 mph 90% 0 in 0.00 W/m2 unknown
03:09 39.2 °F 35.6 °F 30.3 in WNW 2.5 mph 3.7 mph 90% 0 in 0.00 W/m2 unknown
03:14 39.2 °F 35.6 °F 30.3 in NW 2.5 mph 3.7 mph 90% 0 in 0.00 W/m2 unknown
03:19 39.2 °F 35.6 °F 30.3 in NW 1.9 mph 3.7 mph 90% 0 in 0.00 W/m2 unknown
03:24 37.4 °F 35.6 °F 30.3 in NW 2.5 mph 3.7 mph 91% 0 in 0.00 W/m2 unknown
03:29 37.4 °F 35.6 °F 30.3 in NW 3.1 mph 3.7 mph 91% 0 in 0.00 W/m2 unknown
03:34 39.2 °F 35.6 °F 30.3 in NW 3.1 mph 3.7 mph 91% 0 in 0.00 W/m2 unknown
03:39 37.4 °F 35.6 °F 30.3 in NW 3.1 mph 3.7 mph 91% 0 in 0.00 W/m2 unknown
03:44 37.4 °F 35.6 °F 30.3 in NW 3.7 mph 5 mph 91% 0 in 0.00 W/m2 unknown
03:49 37.4 °F 35.6 °F 30.3 in NW 3.1 mph 5 mph 91% 0 in 0.00 W/m2 unknown
03:54 37.4 °F 35.6 °F 30.3 in NW 3.7 mph 6.2 mph 91% 0 in 0.00 W/m2 unknown
03:59 37.4 °F 35.6 °F 30.3 in NW 3.1 mph 6.2 mph 91% 0 in 0.00 W/m2 unknown
04:04 37.4 °F 35.6 °F 30.3 in WNW 2.5 mph 3.7 mph 91% 0 in 0.00 W/m2 unknown
04:09 37.4 °F 35.6 °F 30.3 in West 2.5 mph 3.7 mph 91% 0 in 0.00 W/m2 unknown
04:14 37.4 °F 35.6 °F 30.3 in WSW 1.9 mph 3.1 mph 92% 0 in 0.00 W/m2 unknown
04:19 37.4 °F 35.6 °F 30.3 in WSW 2.5 mph 3.7 mph 92% 0 in 0.00 W/m2 unknown
04:24 37.4 °F 35.6 °F 30.3 in WNW 2.5 mph 3.7 mph 92% 0 in 0.00 W/m2 unknown
04:29 37.4 °F 35.6 °F 30.3 in WNW 2.5 mph 3.7 mph 93% 0 in 0.00 W/m2 unknown
04:34 37.4 °F 35.6 °F 30.3 in WNW 3.1 mph 3.7 mph 92% 0 in 0.00 W/m2 unknown
04:39 37.4 °F 35.6 °F 30.3 in WNW 4.3 mph 6.2 mph 92% 0 in 0.00 W/m2 unknown
04:44 37.4 °F 35.6 °F 30.3 in WNW 4.3 mph 6.2 mph 92% 0 in 0.00 W/m2 unknown
04:49 39.2 °F 35.6 °F 30.3 in NW 4.3 mph 5 mph 91% 0 in 0.00 W/m2 unknown
04:54 37.4 °F 35.6 °F 30.3 in WNW 3.7 mph 5 mph 91% 0 in 0.00 W/m2 unknown
04:59 37.4 °F 35.6 °F 30.3 in WNW 3.7 mph 5 mph 92% 0 in 0.00 W/m2 unknown
05:04 37.4 °F 35.6 °F 30.3 in WNW 5 mph 6.2 mph 92% 0 in 0.00 W/m2 unknown
05:09 37.4 °F 35.6 °F 30.3 in WNW 3.7 mph 6.2 mph 92% 0 in 0.00 W/m2 unknown
05:14 37.4 °F 35.6 °F 30.3 in WNW 3.7 mph 5 mph 92% 0 in 0.00 W/m2 unknown
05:19 37.4 °F 35.6 °F 30.3 in WNW 3.1 mph 5 mph 92% 0 in 0.00 W/m2 unknown
05:24 37.4 °F 35.6 °F 30.3 in WNW 3.1 mph 3.7 mph 92% 0 in 0.00 W/m2 unknown
05:29 37.4 °F 35.6 °F 30.3 in WNW 3.1 mph 3.7 mph 92% 0 in 0.00 W/m2 unknown
05:34 37.4 °F 35.6 °F 30.3 in WNW 2.5 mph 6.2 mph 92% 0 in 0.00 W/m2 unknown
05:39 37.4 °F 35.6 °F 30.3 in WNW 3.7 mph 6.2 mph 92% 0 in 0.00 W/m2 unknown
05:44 37.4 °F 35.6 °F 30.3 in WNW 3.7 mph 6.2 mph 92% 0 in 0.00 W/m2 unknown
05:49 37.4 °F 35.6 °F 30.3 in WNW 3.7 mph 6.2 mph 92% 0 in 0.00 W/m2 unknown
05:54 37.4 °F 35.6 °F 30.3 in WNW 4.3 mph 6.2 mph 92% 0 in 0.00 W/m2 unknown
05:59 37.4 °F 35.6 °F 30.3 in WNW 3.7 mph 6.2 mph 92% 0 in 0.00 W/m2 unknown
06:04 37.4 °F 35.6 °F 30.3 in WNW 4.3 mph 6.2 mph 92% 0 in 0.00 W/m2 unknown
06:09 37.4 °F 35.6 °F 30.3 in WNW 4.3 mph 6.2 mph 92% 0 in 0.00 W/m2 unknown
06:14 37.4 °F 35.6 °F 30.3 in WNW 4.3 mph 6.2 mph 92% 0 in 0.00 W/m2 unknown
06:19 37.4 °F 35.6 °F 30.3 in WNW 5.6 mph 6.8 mph 92% 0 in 0.00 W/m2 unknown
06:24 37.4 °F 35.6 °F 30.3 in WNW 4.3 mph 6.8 mph 92% 0 in 0.00 W/m2 unknown
06:29 37.4 °F 35.6 °F 30.3 in WNW 5 mph 6.2 mph 92% 0 in 0.00 W/m2 unknown
06:34 37.4 °F 35.6 °F 30.3 in WNW 4.3 mph 6.2 mph 92% 0 in 0.00 W/m2 unknown
06:39 37.4 °F 35.6 °F 30.3 in WNW 5 mph 6.2 mph 92% 0 in 0.00 W/m2 unknown
06:44 37.4 °F 35.6 °F 30.3 in WNW 5 mph 6.2 mph 92% 0 in 0.00 W/m2 unknown
06:49 37.4 °F 35.6 °F 30.3 in WNW 4.3 mph 6.8 mph 92% 0 in 0.00 W/m2 unknown
06:54 37.4 °F 35.6 °F 30.3 in WNW 5 mph 6.8 mph 92% 0 in 0.00 W/m2 unknown
06:59 37.4 °F 35.6 °F 30.3 in WNW 5 mph 6.8 mph 92% 0 in 0.00 W/m2 unknown
07:04 37.4 °F 35.6 °F 30.3 in WNW 5 mph 6.8 mph 92% 0 in 0.00 W/m2 unknown
07:09 37.4 °F 35.6 °F 30.3 in WNW 5.6 mph 6.8 mph 92% 0 in 7.00 W/m2 unknown
07:14 37.4 °F 35.6 °F 30.3 in WNW 5.6 mph 8.1 mph 92% 0 in 9.00 W/m2 unknown
07:19 37.4 °F 35.6 °F 30.3 in WNW 7.5 mph 9.3 mph 92% 0 in 12.00 W/m2 unknown
07:24 37.4 °F 35.6 °F 30.3 in WNW 6.8 mph 9.3 mph 92% 0 in 16.00 W/m2 unknown
07:29 37.4 °F 35.6 °F 30.3 in WNW 7.5 mph 9.3 mph 92% 0 in 21.00 W/m2 unknown
07:34 37.4 °F 35.6 °F 30.3 in WNW 6.2 mph 8.7 mph 92% 0 in 30.00 W/m2 unknown
07:39 37.4 °F 35.6 °F 30.3 in WNW 8.1 mph 9.9 mph 92% 0 in 40.00 W/m2 unknown
07:44 37.4 °F 35.6 °F 30.3 in WNW 8.7 mph 11.8 mph 92% 0 in 51.00 W/m2 unknown
07:49 37.4 °F 35.6 °F 30.3 in WNW 8.1 mph 11.8 mph 92% 0 in 65.00 W/m2 unknown
07:54 37.4 °F 35.6 °F 30.3 in West 8.1 mph 10.6 mph 91% 0 in 77.00 W/m2 unknown
07:59 37.4 °F 35.6 °F 30.3 in WNW 6.8 mph 10.6 mph 91% 0 in 90.00 W/m2 unknown
08:04 39.2 °F 35.6 °F 30.3 in West 8.1 mph 10.6 mph 90% 0 in 104.00 W/m2 unknown
08:09 39.2 °F 35.6 °F 30.3 in West 8.7 mph 11.8 mph 90% 0 in 120.00 W/m2 unknown
08:14 39.2 °F 37.4 °F 30.3 in WNW 10.6 mph 14.3 mph 90% 0 in 135.00 W/m2 unknown
08:19 39.2 °F 37.4 °F 30.3 in WNW 10.6 mph 14.3 mph 89% 0 in 151.00 W/m2 unknown
08:24 41 °F 37.4 °F 30.3 in WNW 8.7 mph 14.3 mph 88% 0 in 165.00 W/m2 unknown
08:29 41 °F 37.4 °F 30.3 in WNW 7.5 mph 11.8 mph 88% 0 in 181.00 W/m2 unknown
08:34 41 °F 37.4 °F 30.3 in NW 8.7 mph 14.9 mph 88% 0 in 193.00 W/m2 unknown
08:39 41 °F 37.4 °F 30.3 in NW 11.2 mph 14.9 mph 87% 0 in 211.00 W/m2 unknown
08:44 41 °F 37.4 °F 30.3 in WNW 10.6 mph 14.3 mph 87% 0 in 225.00 W/m2 unknown
08:49 41 °F 37.4 °F 30.3 in WNW 11.8 mph 14.9 mph 87% 0 in 239.00 W/m2 unknown
08:54 41 °F 37.4 °F 30.3 in WNW 11.8 mph 14.9 mph 87% 0 in 253.00 W/m2 unknown
08:59 41 °F 37.4 °F 30.3 in WNW 11.8 mph 16.2 mph 87% 0 in 264.00 W/m2 unknown
09:04 41 °F 37.4 °F 30.3 in WNW 11.8 mph 16.2 mph 87% 0 in 276.00 W/m2 unknown
09:09 42.8 °F 39.2 °F 30.3 in WNW 11.8 mph 16.2 mph 87% 0 in 290.00 W/m2 unknown
09:14 42.8 °F 39.2 °F 30.3 in WNW 11.8 mph 16.2 mph 86% 0 in 306.00 W/m2 unknown
09:19 42.8 °F 39.2 °F 30.3 in WNW 13.7 mph 16.2 mph 85% 0 in 318.00 W/m2 unknown
09:24 42.8 °F 39.2 °F 30.3 in WNW 13 mph 16.2 mph 84% 0 in 332.00 W/m2 unknown
09:29 44.6 °F 39.2 °F 30.3 in WNW 11.2 mph 17.4 mph 83% 0 in 345.00 W/m2 unknown
09:34 44.6 °F 39.2 °F 30.3 in WNW 11.2 mph 16.8 mph 82% 0 in 355.00 W/m2 unknown
09:39 44.6 °F 39.2 °F 30.3 in WNW 8.7 mph 14.9 mph 82% 0 in 367.00 W/m2 unknown
09:44 46.4 °F 39.2 °F 30.3 in WNW 9.9 mph 14.9 mph 81% 0 in 380.00 W/m2 unknown
09:49 46.4 °F 39.2 °F 30.3 in WNW 10.6 mph 14.9 mph 80% 0 in 392.00 W/m2 unknown
09:54 46.4 °F 39.2 °F 30.3 in WNW 11.2 mph 14.3 mph 78% 0 in 404.00 W/m2 unknown
09:59 46.4 °F 39.2 °F 30.3 in WNW 8.7 mph 14.3 mph 78% 0 in 415.00 W/m2 unknown
10:04 46.4 °F 41 °F 30.3 in WNW 8.1 mph 11.8 mph 77% 0 in 425.00 W/m2 unknown
10:09 48.2 °F 39.2 °F 30.3 in WNW 8.7 mph 13 mph 76% 0 in 436.00 W/m2 unknown
10:14 48.2 °F 39.2 °F 30.3 in WNW 7.5 mph 13 mph 74% 0 in 446.00 W/m2 unknown
10:19 48.2 °F 39.2 °F 30.3 in WNW 9.3 mph 11.8 mph 72% 0 in 457.00 W/m2 unknown
10:24 48.2 °F 39.2 °F 30.3 in WNW 9.3 mph 11.8 mph 71% 0 in 469.00 W/m2 unknown
10:29 48.2 °F 39.2 °F 30.3 in NW 9.3 mph 13 mph 70% 0 in 476.00 W/m2 unknown
10:34 50 °F 39.2 °F 30.3 in WNW 7.5 mph 13 mph 69% 0 in 485.00 W/m2 unknown
10:39 50 °F 39.2 °F 30.3 in NW 6.8 mph 11.8 mph 68% 0 in 494.00 W/m2 unknown
10:44 51.8 °F 39.2 °F 30.3 in NW 8.1 mph 11.8 mph 64% 0 in 504.00 W/m2 unknown
10:49 51.8 °F 37.4 °F 30.3 in NW 6.8 mph 11.8 mph 62% 0 in 513.00 W/m2 unknown
10:54 51.8 °F 39.2 °F 30.3 in NNW 6.8 mph 9.9 mph 61% 0 in 520.00 W/m2 unknown
10:59 51.8 °F 39.2 °F 30.3 in NW 6.2 mph 10.6 mph 61% 0 in 527.00 W/m2 unknown
11:04 51.8 °F 37.4 °F 30.3 in NW 6.2 mph 9.9 mph 57% 0 in 534.00 W/m2 unknown
11:09 53.6 °F 37.4 °F 30.3 in NNW 6.8 mph 9.3 mph 57% 0 in 543.00 W/m2 unknown
11:14 53.6 °F 35.6 °F 30.3 in NNW 7.5 mph 9.3 mph 51% 0 in 547.00 W/m2 unknown
11:19 53.6 °F 35.6 °F 30.3 in NNW 7.5 mph 11.8 mph 50% 0 in 555.00 W/m2 unknown
11:24 55.4 °F 35.6 °F 30.3 in NNW 6.2 mph 11.8 mph 48% 0 in 563.00 W/m2 unknown
11:29 55.4 °F 33.8 °F 30.3 in NNW 6.8 mph 9.9 mph 45% 0 in 564.00 W/m2 unknown
11:34 55.4 °F 32 °F 30.3 in NW 6.8 mph 10.6 mph 43% 0 in 571.00 W/m2 unknown
11:39 55.4 °F 33.8 °F 30.3 in NW 5.6 mph 9.9 mph 43% 0 in 580.00 W/m2 unknown
11:44 55.4 °F 32 °F 30.3 in NW 6.2 mph 9.3 mph 39% 0 in 584.00 W/m2 unknown
11:49 55.4 °F 32 °F 30.3 in NW 7.5 mph 9.3 mph 39% 0 in 589.00 W/m2 unknown
11:54 57.2 °F 32 °F 30.3 in NNE 7.5 mph 9.3 mph 38% 0 in 596.00 W/m2 unknown
11:59 57.2 °F 28.4 °F 30.3 in ENE 5.6 mph 8.7 mph 34% 0 in 598.00 W/m2 unknown
12:04 55.4 °F 26.6 °F 30.3 in ENE 9.9 mph 12.4 mph 33% 0 in 599.00 W/m2 unknown
12:09 57.2 °F 26.6 °F 30.3 in NE 7.5 mph 13 mph 31% 0 in 605.00 W/m2 unknown
12:14 57.2 °F 23 °F 30.3 in NE 8.1 mph 11.8 mph 27% 0 in 606.00 W/m2 unknown
12:19 55.4 °F 23 °F 30.3 in ENE 8.7 mph 11.8 mph 28% 0 in 610.00 W/m2 unknown
12:24 57.2 °F 23 °F 30.3 in ENE 10.6 mph 12.4 mph 28% 0 in 612.00 W/m2 unknown
12:29 55.4 °F 23 °F 30.3 in East 9.9 mph 13 mph 29% 0 in 612.00 W/m2 unknown
12:34 55.4 °F 24.8 °F 30.3 in East 8.1 mph 13 mph 30% 0 in 612.00 W/m2 unknown
12:39 55.4 °F 24.8 °F 30.3 in ENE 9.3 mph 13 mph 30% 0 in 612.00 W/m2 unknown
12:44 55.4 °F 24.8 °F 30.3 in ENE 9.3 mph 13 mph 30% 0 in 613.00 W/m2 unknown
12:49 57.2 °F 24.8 °F 30.3 in ENE 4.3 mph 13 mph 30% 0 in 613.00 W/m2 unknown
12:54 57.2 °F 26.6 °F 30.3 in East 6.2 mph 9.3 mph 33% 0 in 612.00 W/m2 unknown
12:59 55.4 °F 26.6 °F 30.3 in SE 7.5 mph 11.8 mph 33% 0 in 610.00 W/m2 unknown
13:04 55.4 °F 26.6 °F 30.3 in ESE 6.8 mph 11.8 mph 32% 0 in 610.00 W/m2 unknown
13:09 55.4 °F 26.6 °F 30.3 in ESE 6.2 mph 9.9 mph 32% 0 in 610.00 W/m2 unknown
13:14 55.4 °F 26.6 °F 30.3 in SE 8.7 mph 10.6 mph 31% 0 in 606.00 W/m2 unknown
13:19 55.4 °F 24.8 °F 30.3 in SE 8.1 mph 11.8 mph 31% 0 in 605.00 W/m2 unknown
13:24 55.4 °F 26.6 °F 30.3 in East 8.7 mph 11.8 mph 33% 0 in 601.00 W/m2 unknown
13:29 55.4 °F 26.6 °F 30.3 in NE 8.7 mph 11.8 mph 33% 0 in 596.00 W/m2 unknown
13:34 55.4 °F 26.6 °F 30.3 in NE 6.2 mph 11.8 mph 32% 0 in 589.00 W/m2 unknown
13:39 57.2 °F 26.6 °F 30.2 in ESE 8.1 mph 10.6 mph 31% 0 in 587.00 W/m2 unknown
13:44 57.2 °F 26.6 °F 30.2 in East 8.1 mph 10.6 mph 31% 0 in 584.00 W/m2 unknown
13:49 57.2 °F 24.8 °F 30.2 in ESE 10.6 mph 14.3 mph 30% 0 in 578.00 W/m2 unknown
13:54 55.4 °F 24.8 °F 30.2 in ESE 8.7 mph 14.3 mph 30% 0 in 575.00 W/m2 unknown
13:59 55.4 °F 26.6 °F 30.2 in ESE 8.7 mph 11.8 mph 32% 0 in 566.00 W/m2 unknown
14:04 55.4 °F 24.8 °F 30.2 in East 8.7 mph 11.8 mph 30% 0 in 561.00 W/m2 unknown
14:09 55.4 °F 26.6 °F 30.2 in ESE 8.1 mph 11.8 mph 31% 0 in 554.00 W/m2 unknown
14:14 57.2 °F 26.6 °F 30.2 in SE 5.6 mph 8.7 mph 32% 0 in 547.00 W/m2 unknown
14:19 57.2 °F 30.2 °F 30.2 in East 8.7 mph 11.8 mph 36% 0 in 540.00 W/m2 unknown
14:24 57.2 °F 30.2 °F 30.2 in East 8.1 mph 13 mph 36% 0 in 524.00 W/m2 unknown
14:29 57.2 °F 30.2 °F 30.2 in ESE 10.6 mph 13 mph 36% 0 in 517.00 W/m2 unknown
14:34 55.4 °F 30.2 °F 30.2 in SE 8.1 mph 13 mph 36% 0 in 510.00 W/m2 unknown
14:39 55.4 °F 30.2 °F 30.2 in SE 8.1 mph 13 mph 36% 0 in 503.00 W/m2 unknown
14:44 55.4 °F 30.2 °F 30.2 in ESE 8.1 mph 13 mph 36% 0 in 494.00 W/m2 unknown
14:49 55.4 °F 28.4 °F 30.2 in ESE 9.3 mph 13 mph 35% 0 in 483.00 W/m2 unknown
14:54 55.4 °F 28.4 °F 30.2 in ESE 9.3 mph 11.8 mph 36% 0 in 476.00 W/m2 unknown
14:59 55.4 °F 28.4 °F 30.2 in ESE 8.1 mph 11.8 mph 36% 0 in 466.00 W/m2 unknown
15:04 55.4 °F 28.4 °F 30.2 in East 11.8 mph 14.9 mph 35% 0 in 455.00 W/m2 unknown
15:09 55.4 °F 28.4 °F 30.2 in SE 11.8 mph 14.9 mph 35% 0 in 443.00 W/m2 unknown
15:14 55.4 °F 28.4 °F 30.2 in SE 7.5 mph 14.9 mph 36% 0 in 432.00 W/m2 unknown
15:19 55.4 °F 28.4 °F 30.2 in ESE 9.3 mph 11.8 mph 36% 0 in 424.00 W/m2 unknown
15:24 55.4 °F 28.4 °F 30.2 in ESE 8.1 mph 11.8 mph 36% 0 in 411.00 W/m2 unknown
15:29 55.4 °F 30.2 °F 30.2 in ESE 9.3 mph 13 mph 37% 0 in 401.00 W/m2 unknown
15:34 55.4 °F 28.4 °F 30.2 in ESE 9.3 mph 13 mph 37% 0 in 388.00 W/m2 unknown
15:39 55.4 °F 28.4 °F 30.2 in ESE 10.6 mph 14.3 mph 36% 0 in 378.00 W/m2 unknown
15:44 55.4 °F 28.4 °F 30.2 in SE 9.3 mph 14.3 mph 36% 0 in 364.00 W/m2 unknown
15:54 55.4 °F 30.2 °F 30.2 in SSE 7.5 mph 11.8 mph 38% 0 in 339.00 W/m2 unknown
15:59 55.4 °F 32 °F 30.2 in SE 8.7 mph 11.8 mph 41% 0 in 325.00 W/m2 unknown
16:04 55.4 °F 32 °F 30.2 in SE 7.5 mph 11.8 mph 41% 0 in 311.00 W/m2 unknown
16:09 55.4 °F 32 °F 30.2 in ESE 8.1 mph 11.8 mph 42% 0 in 299.00 W/m2 unknown
16:14 53.6 °F 32 °F 30.2 in ESE 11.2 mph 13 mph 43% 0 in 283.00 W/m2 unknown
16:19 53.6 °F 32 °F 30.2 in SE 9.9 mph 13 mph 43% 0 in 269.00 W/m2 unknown
16:24 53.6 °F 32 °F 30.2 in ESE 10.6 mph 13 mph 42% 0 in 257.00 W/m2 unknown
16:29 53.6 °F 32 °F 30.2 in ESE 10.6 mph 14.3 mph 42% 0 in 244.00 W/m2 unknown
16:34 53.6 °F 32 °F 30.2 in SE 8.7 mph 14.3 mph 44% 0 in 229.00 W/m2 unknown
16:39 53.6 °F 32 °F 30.2 in ESE 9.3 mph 14.9 mph 43% 0 in 213.00 W/m2 unknown
16:44 53.6 °F 32 °F 30.2 in ESE 9.9 mph 14.9 mph 44% 0 in 193.00 W/m2 unknown
16:49 53.6 °F 32 °F 30.2 in SE 7.5 mph 14.3 mph 44% 0 in 176.00 W/m2 unknown
16:54 53.6 °F 32 °F 30.2 in SE 7.5 mph 11.8 mph 44% 0 in 158.00 W/m2 unknown
16:59 53.6 °F 32 °F 30.2 in ESE 6.8 mph 9.3 mph 45% 0 in 141.00 W/m2 unknown
17:04 53.6 °F 32 °F 30.2 in ESE 6.8 mph 9.3 mph 45% 0 in 127.00 W/m2 unknown
17:09 51.8 °F 32 °F 30.2 in ESE 8.7 mph 11.8 mph 45% 0 in 109.00 W/m2 unknown
17:14 51.8 °F 32 °F 30.2 in SE 6.8 mph 11.8 mph 45% 0 in 91.00 W/m2 unknown
17:19 51.8 °F 32 °F 30.2 in ESE 6.8 mph 9.3 mph 46% 0 in 77.00 W/m2 unknown
17:24 51.8 °F 32 °F 30.3 in ESE 6.2 mph 8.7 mph 46% 0 in 63.00 W/m2 unknown
17:29 51.8 °F 32 °F 30.3 in SSE 5 mph 8.1 mph 46% 0 in 51.00 W/m2 unknown
17:34 51.8 °F 32 °F 30.3 in SE 5 mph 8.7 mph 47% 0 in 30.00 W/m2 unknown
17:39 51.8 °F 32 °F 30.3 in SE 5 mph 8.7 mph 47% 0 in 23.00 W/m2 unknown
17:44 51.8 °F 32 °F 30.3 in SE 4.3 mph 6.2 mph 48% 0 in 19.00 W/m2 unknown
17:49 50 °F 32 °F 30.3 in SE 4.3 mph 8.1 mph 48% 0 in 12.00 W/m2 unknown
17:54 50 °F 30.2 °F 30.3 in SE 6.2 mph 9.3 mph 47% 0 in 9.00 W/m2 unknown
17:59 50 °F 30.2 °F 30.3 in ESE 6.2 mph 10.6 mph 47% 0 in 7.00 W/m2 unknown
18:00 50 °F 30.2 °F 30.3 in ESE 5 mph 9.9 mph 47% 0 in 5.00 W/m2 unknown
18:11 50 °F 30.2 °F 30.3 in ESE 4.3 mph 6.8 mph 47% 0 in 5.00 W/m2 unknown
18:19 48.2 °F 30.2 °F 30.3 in SE 4.3 mph 6.8 mph 49% 0 in 0.00 W/m2 unknown
18:24 48.2 °F 30.2 °F 30.3 in SE 2.5 mph 6.8 mph 50% 0 in 0.00 W/m2 unknown
18:29 48.2 °F 30.2 °F 30.3 in SSE 3.1 mph 3.7 mph 51% 0 in 0.00 W/m2 unknown
18:34 48.2 °F 30.2 °F 30.3 in SSE 2.5 mph 5 mph 51% 0 in 0.00 W/m2 unknown
18:39 46.4 °F 30.2 °F 30.3 in SE 4.3 mph 6.8 mph 51% 0 in 0.00 W/m2 unknown
18:44 46.4 °F 30.2 °F 30.3 in ESE 5 mph 6.8 mph 52% 0 in 0.00 W/m2 unknown
18:49 46.4 °F 30.2 °F 30.3 in ESE 5 mph 6.8 mph 53% 0 in 0.00 W/m2 unknown
18:54 46.4 °F 30.2 °F 30.3 in ESE 2.5 mph 6.8 mph 54% 0 in 0.00 W/m2 unknown
18:59 46.4 °F 30.2 °F 30.3 in ESE 2.5 mph 5 mph 54% 0 in 0.00 W/m2 unknown
19:04 46.4 °F 32 °F 30.3 in ESE 1.9 mph 5 mph 56% 0 in 0.00 W/m2 unknown
19:09 46.4 °F 32 °F 30.3 in SE 1.9 mph 3.7 mph 57% 0 in 0.00 W/m2 unknown
19:14 46.4 °F 32 °F 30.3 in ESE 2.5 mph 3.7 mph 58% 0 in 0.00 W/m2 unknown
19:19 46.4 °F 32 °F 30.3 in ESE 3.7 mph 5 mph 59% 0 in 0.00 W/m2 unknown
19:24 44.6 °F 32 °F 30.3 in ESE 3.7 mph 6.2 mph 59% 0 in 0.00 W/m2 unknown
19:29 44.6 °F 32 °F 30.3 in ESE 4.3 mph 6.8 mph 60% 0 in 0.00 W/m2 unknown
19:34 44.6 °F 32 °F 30.3 in ESE 5 mph 6.8 mph 62% 0 in 0.00 W/m2 unknown
19:39 42.8 °F 32 °F 30.3 in ESE 3.1 mph 3.7 mph 62% 0 in 0.00 W/m2 unknown
19:44 44.6 °F 32 °F 30.3 in ESE 3.1 mph 3.7 mph 62% 0 in 0.00 W/m2 unknown
19:49 44.6 °F 32 °F 30.3 in ESE 2.5 mph 3.7 mph 62% 0 in 0.00 W/m2 unknown
19:54 44.6 °F 32 °F 30.3 in East 1.9 mph 3.1 mph 64% 0 in 0.00 W/m2 unknown
19:59 42.8 °F 32 °F 30.3 in East 1.9 mph 2.5 mph 65% 0 in 0.00 W/m2 unknown
20:00 42.8 °F 32 °F 30.3 in East 1.2 mph 1.9 mph 65% 0 in 0.00 W/m2 unknown
20:19 42.8 °F 32 °F 30.3 in East 1.2 mph 2.5 mph 67% 0 in 0.00 W/m2 unknown
20:24 42.8 °F 32 °F 30.3 in ENE 0.6 mph 1.9 mph 68% 0 in 0.00 W/m2 unknown
20:29 42.8 °F 32 °F 30.3 in ENE 1.2 mph 1.2 mph 68% 0 in 0.00 W/m2 unknown
20:34 42.8 °F 32 °F 30.3 in ENE 0.6 mph 1.9 mph 69% 0 in 0.00 W/m2 unknown
20:39 42.8 °F 32 °F 30.3 in ENE 1.2 mph 2.5 mph 69% 0 in 0.00 W/m2 unknown
20:44 41 °F 32 °F 30.3 in ENE 0.6 mph 1.9 mph 69% 0 in 0.00 W/m2 unknown
20:49 41 °F 32 °F 30.3 in ENE 0.6 mph 1.2 mph 70% 0 in 0.00 W/m2 unknown
20:54 41 °F 32 °F 30.3 in ENE 1.2 mph 2.5 mph 70% 0 in 0.00 W/m2 unknown
20:59 41 °F 32 °F 30.3 in ENE 1.9 mph 3.1 mph 70% 0 in 0.00 W/m2 unknown
21:04 41 °F 32 °F 30.3 in ENE 1.9 mph 3.7 mph 71% 0 in 0.00 W/m2 unknown
21:09 41 °F 32 °F 30.3 in East 2.5 mph 3.7 mph 71% 0 in 0.00 W/m2 unknown
21:14 41 °F 32 °F 30.3 in East 2.5 mph 3.7 mph 70% 0 in 0.00 W/m2 unknown
21:19 41 °F 32 °F 30.3 in East 2.5 mph 3.7 mph 70% 0 in 0.00 W/m2 unknown
21:24 41 °F 32 °F 30.3 in East 2.5 mph 3.7 mph 70% 0 in 0.00 W/m2 unknown
21:29 41 °F 32 °F 30.3 in ENE 1.2 mph 2.5 mph 70% 0 in 0.00 W/m2 unknown
21:34 41 °F 32 °F 30.3 in Calm   1.2 mph 70% 0 in 0.00 W/m2 unknown
21:39 41 °F 32 °F 30.3 in Calm   1.2 mph 72% 0 in 0.00 W/m2 unknown
21:44 39.2 °F 30.2 °F 30.3 in Calm   1.2 mph 73% 0 in 0.00 W/m2 unknown
21:49 39.2 °F 30.2 °F 30.3 in NNE 0.6 mph 1.9 mph 74% 0 in 0.00 W/m2 unknown
21:54 39.2 °F 30.2 °F 30.3 in NNW 1.2 mph 3.7 mph 74% 0 in 0.00 W/m2 unknown
21:59 39.2 °F 30.2 °F 30.3 in NNW 2.5 mph 3.7 mph 74% 0 in 0.00 W/m2 unknown
22:00 39.2 °F 30.2 °F 30.3 in North 1.9 mph 3.7 mph 74% 0 in 0.00 W/m2 unknown
22:19 39.2 °F 32 °F 30.3 in ENE 2.5 mph 3.7 mph 74% 0 in 0.00 W/m2 unknown
22:24 39.2 °F 32 °F 30.3 in ENE 1.2 mph 3.1 mph 75% 0 in 0.00 W/m2 unknown
22:29 39.2 °F 32 °F 30.3 in ENE 1.9 mph 2.5 mph 76% 0 in 0.00 W/m2 unknown
22:34 39.2 °F 32 °F 30.3 in ENE 1.9 mph 3.7 mph 76% 0 in 0.00 W/m2 unknown
22:39 39.2 °F 32 °F 30.3 in NE 1.9 mph 3.7 mph 75% 0 in 0.00 W/m2 unknown
22:44 39.2 °F 32 °F 30.3 in NE 1.2 mph 3.1 mph 77% 0 in 0.00 W/m2 unknown
22:49 37.4 °F 32 °F 30.3 in NE 1.2 mph 2.5 mph 78% 0 in 0.00 W/m2 unknown
22:54 37.4 °F 32 °F 30.3 in NE 1.2 mph 1.9 mph 78% 0 in 0.00 W/m2 unknown
22:59 37.4 °F 32 °F 30.3 in NE 1.2 mph 1.2 mph 78% 0 in 0.00 W/m2 unknown
23:04 37.4 °F 32 °F 30.3 in NE 1.2 mph 1.9 mph 79% 0 in 0.00 W/m2 unknown
23:09 37.4 °F 32 °F 30.3 in NE 1.9 mph 2.5 mph 79% 0 in 0.00 W/m2 unknown
23:14 37.4 °F 32 °F 30.3 in NE 1.2 mph 2.5 mph 79% 0 in 0.00 W/m2 unknown
23:19 37.4 °F 32 °F 30.3 in NE 1.2 mph 2.5 mph 80% 0 in 0.00 W/m2 unknown
23:24 37.4 °F 32 °F 30.3 in NE 1.2 mph 2.5 mph 80% 0 in 0.00 W/m2 unknown
23:29 37.4 °F 32 °F 30.3 in NE 1.9 mph 2.5 mph 80% 0 in 0.00 W/m2 unknown
23:34 37.4 °F 32 °F 30.3 in NE 1.2 mph 1.9 mph 80% 0 in 0.00 W/m2 unknown
23:39 37.4 °F 30.2 °F 30.3 in Calm   1.2 mph 79% 0 in 0.00 W/m2 unknown
23:44 37.4 °F 30.2 °F 30.3 in Calm   1.2 mph 79% 0 in 0.00 W/m2 unknown
23:49 35.6 °F 30.2 °F 30.3 in Calm     79% 0 in 0.00 W/m2 unknown
23:54 35.6 °F 30.2 °F 30.3 in Calm     80% 0 in 0.00 W/m2 unknown
23:59 35.6 °F 30.2 °F 30.3 in Calm     80% 0 in 0.00 W/m2 unknown
Stazione Meteorologica MeteoMincio Rivalta s/M (MN)
Con i complimenti di Weather Underground - 4 mb



METEO PILLOLE
Il luogo più arido della Terra
Arica (65 m)- Cile
Da 50 anni, in media cadono appena 7 mm di pioggia all'anno.
Share

Non seguire questo link o sarai bannato dal sito!